• In Deutschland
  • Länderverzeichnis
  • Für 7 Tage
  • Wassertemperatur
  • Satellitenkarten
  • Wetterkarte
  • Widgets
  • user-avatar
    Anmelden

    Stündliche Wetter Altbach

    Heute, 19 September, Mittwoch

    Zeit Temperatur Niederschläge Wind Luftdruck Luftfeuchtigkeit
    00:00 +19°C° 0.2 mm 1 m/S 737 mmHg 79%
    01:00 +19°C° 0.2 mm 1 m/S 737 mmHg 80%
    02:00 +19°C° 0 mm 1 m/S 737 mmHg 81%
    03:00 +19°C° 0 mm 1 m/S 737 mmHg 81%
    04:00 +18°C° 0 mm 1 m/S 737 mmHg 82%
    05:00 +18°C° 0 mm 1 m/S 737 mmHg 82%
    06:00 +18°C° 0 mm 1 m/S 737 mmHg 82%
    07:00 +18°C° 0 mm 1 m/S 737 mmHg 82%
    08:00 +21°C° 0 mm 1 m/S 738 mmHg 74%
    09:00 +23°C° 0 mm 1 m/S 738 mmHg 66%
    10:00 +26°C° 0 mm 1 m/S 738 mmHg 58%
    11:00 +27°C° 0 mm 1 m/S 738 mmHg 54%
    12:00 +28°C° 0 mm 1 m/S 738 mmHg 49%
    13:00 +29°C° 0 mm 1 m/S 738 mmHg 45%
    14:00 +29°C° 0 mm 1 m/S 738 mmHg 46%
    15:00 +29°C° 0 mm 1 m/S 738 mmHg 46%
    16:00 +29°C° 0 mm 1 m/S 738 mmHg 47%
    17:00 +27°C° 0 mm 1 m/S 738 mmHg 54%
    18:00 +24°C° 0 mm 1 m/S 738 mmHg 61%
    19:00 +20°C° 0 mm 0 m/S 738 mmHg 69%
    20:00 +22°C° 0.1 mm 1 m/S 738 mmHg 71%
    21:00 +21°C° 0.1 mm 1 m/S 738 mmHg 74%
    22:00 +20°C° 0.1 mm 1 m/S 738 mmHg 77%
    23:00 +20°C° 0 mm 1 m/S 738 mmHg 78%

    Morgen, 20 September, Donnerstag

    Zeit Temperatur Niederschläge Wind Luftdruck Luftfeuchtigkeit
    00:00 +20°C° 0 mm 1 m/S 738 mmHg 80%
    01:00 +19°C° 0 mm 1 m/S 738 mmHg 81%
    02:00 +19°C° 0 mm 1 m/S 738 mmHg 82%
    03:00 +19°C° 0 mm 1 m/S 738 mmHg 83%
    04:00 +18°C° 0 mm 1 m/S 738 mmHg 84%
    05:00 +18°C° 0 mm 1 m/S 738 mmHg 84%
    06:00 +19°C° 0 mm 1 m/S 738 mmHg 84%
    07:00 +19°C° 0 mm 1 m/S 738 mmHg 84%
    08:00 +21°C° 0 mm 1 m/S 738 mmHg 77%
    09:00 +23°C° 0 mm 1 m/S 738 mmHg 69%
    10:00 +26°C° 0 mm 1 m/S 738 mmHg 62%
    11:00 +27°C° 0 mm 1 m/S 738 mmHg 58%
    12:00 +28°C° 0 mm 1 m/S 738 mmHg 54%
    13:00 +29°C° 0 mm 1 m/S 738 mmHg 50%
    14:00 +29°C° 0 mm 1 m/S 737 mmHg 49%
    15:00 +29°C° 0 mm 1 m/S 737 mmHg 49%
    16:00 +28°C° 0 mm 1 m/S 736 mmHg 49%
    17:00 +26°C° 0 mm 1 m/S 736 mmHg 56%
    18:00 +24°C° 0 mm 1 m/S 736 mmHg 64%
    19:00 +22°C° 0 mm 1 m/S 735 mmHg 72%
    20:00 +21°C° 0 mm 1 m/S 735 mmHg 75%
    21:00 +21°C° 0 mm 1 m/S 735 mmHg 78%
    22:00 +20°C° 0 mm 1 m/S 735 mmHg 81%
    23:00 +20°C° 0 mm 1 m/S 735 mmHg 82%

    übermorgen, 21 September, Freitag

    Zeit Temperatur Niederschläge Wind Luftdruck Luftfeuchtigkeit
    00:00 +18°C° 0 mm 2 m/S 734 mmHg 84%
    01:00 +18°C° 0 mm 2 m/S 734 mmHg 86%
    02:00 +18°C° 0 mm 2 m/S 734 mmHg 86%
    03:00 +17°C° 0 mm 2 m/S 733 mmHg 86%
    04:00 +17°C° 0 mm 2 m/S 733 mmHg 87%
    05:00 +17°C° 0 mm 2 m/S 733 mmHg 84%
    06:00 +17°C° 0 mm 2 m/S 733 mmHg 82%
    07:00 +17°C° 0 mm 2 m/S 733 mmHg 80%
    08:00 +20°C° 0 mm 3 m/S 733 mmHg 71%
    09:00 +23°C° 0 mm 4 m/S 732 mmHg 62%
    10:00 +26°C° 0 mm 5 m/S 732 mmHg 53%
    11:00 +27°C° 0 mm 5 m/S 732 mmHg 50%
    12:00 +28°C° 0 mm 6 m/S 731 mmHg 47%
    13:00 +29°C° 0 mm 6 m/S 731 mmHg 45%
    14:00 +28°C° 0 mm 6 m/S 730 mmHg 47%
    15:00 +28°C° 0 mm 6 m/S 730 mmHg 50%
    16:00 +27°C° 0 mm 6 m/S 729 mmHg 52%
    17:00 +22°C° 1.5 mm 5 m/S 730 mmHg 64%
    18:00 +17°C° 1.5 mm 5 m/S 731 mmHg 75%
    19:00 +13°C° 1.5 mm 5 m/S 732 mmHg 87%
    20:00 +12°C° 1 mm 5 m/S 734 mmHg 86%
    21:00 +11°C° 1 mm 4 m/S 735 mmHg 85%
    22:00 +10°C° 1 mm 4 m/S 736 mmHg 84%
    23:00 +10°C° 0.1 mm 4 m/S 737 mmHg 85%

    22 September, Samstag

    Zeit Temperatur Niederschläge Wind Luftdruck Luftfeuchtigkeit
    00:00 +10°C° 0.1 mm 4 m/S 738 mmHg 86%
    01:00 +10°C° 0.1 mm 4 m/S 739 mmHg 87%
    02:00 +9°C° 0 mm 3 m/S 739 mmHg 88%
    03:00 +9°C° 0 mm 3 m/S 740 mmHg 89%
    04:00 +8°C° 0 mm 3 m/S 740 mmHg 89%
    05:00 +8°C° 0 mm 3 m/S 740 mmHg 89%
    06:00 +8°C° 0 mm 3 m/S 741 mmHg 89%
    07:00 +8°C° 0 mm 2 m/S 741 mmHg 89%
    08:00 +10°C° 0 mm 3 m/S 741 mmHg 79%
    09:00 +11°C° 0 mm 3 m/S 741 mmHg 69%
    10:00 +13°C° 0 mm 3 m/S 741 mmHg 59%
    11:00 +14°C° 0 mm 3 m/S 741 mmHg 54%
    12:00 +16°C° 0 mm 3 m/S 740 mmHg 49%
    13:00 +17°C° 0 mm 3 m/S 740 mmHg 44%
    14:00 +17°C° 0 mm 3 m/S 740 mmHg 44%
    15:00 +17°C° 0 mm 3 m/S 739 mmHg 44%
    16:00 +17°C° 0 mm 3 m/S 739 mmHg 44%
    17:00 +15°C° 0 mm 2 m/S 739 mmHg 49%
    18:00 +14°C° 0 mm 2 m/S 739 mmHg 55%
    19:00 +12°C° 0 mm 1 m/S 739 mmHg 60%
    20:00 +11°C° 0 mm 1 m/S 740 mmHg 62%
    21:00 +11°C° 0 mm 1 m/S 740 mmHg 64%
    22:00 +10°C° 0 mm 1 m/S 740 mmHg 66%
    23:00 +10°C° 0 mm 1 m/S 739 mmHg 65%

    23 September, Sonntag

    Zeit Temperatur Niederschläge Wind Luftdruck Luftfeuchtigkeit
    00:00 +11°C° 0 mm 1 m/S 739 mmHg 64%
    01:00 +11°C° 0 mm 1 m/S 739 mmHg 63%
    02:00 +11°C° 0.1 mm 1 m/S 738 mmHg 66%
    03:00 +11°C° 0.1 mm 1 m/S 737 mmHg 69%
    04:00 +10°C° 0.1 mm 2 m/S 737 mmHg 71%
    05:00 +10°C° 0.1 mm 2 m/S 736 mmHg 73%
    06:00 +10°C° 0.1 mm 2 m/S 735 mmHg 74%
    07:00 +10°C° 0.1 mm 3 m/S 734 mmHg 75%
    08:00 +13°C° 0 mm 3 m/S 734 mmHg 67%
    09:00 +15°C° 0 mm 4 m/S 733 mmHg 59%
    10:00 +17°C° 0 mm 5 m/S 732 mmHg 51%
    11:00 +19°C° 0.1 mm 5 m/S 731 mmHg 53%
    12:00 +19°C° 0.1 mm 5 m/S 730 mmHg 56%
    13:00 +20°C° 0.1 mm 5 m/S 729 mmHg 58%
    14:00 +22°C° 0 mm 5 m/S 727 mmHg 56%
    15:00 +23°C° 0 mm 6 m/S 726 mmHg 55%
    16:00 +26°C° 0 mm 6 m/S 724 mmHg 53%
    17:00 +23°C° 0.4 mm 7 m/S 724 mmHg 60%
    18:00 +22°C° 0.4 mm 7 m/S 723 mmHg 67%
    19:00 +20°C° 0.4 mm 8 m/S 723 mmHg 73%
    20:00 +16°C° 1.7 mm 9 m/S 723 mmHg 75%
    21:00 +13°C° 1.7 mm 9 m/S 724 mmHg 77%
    22:00 +10°C° 1.7 mm 9 m/S 725 mmHg 78%
    23:00 +9°C° 0.1 mm 11 m/S 726 mmHg 74%

    24 September, Montag

    Zeit Temperatur Niederschläge Wind Luftdruck Luftfeuchtigkeit
    00:00 +9°C° 0.1 mm 12 m/S 726 mmHg 69%
    01:00 +9°C° 0.1 mm 13 m/S 726 mmHg 65%
    02:00 +8°C° 0.4 mm 14 m/S 727 mmHg 69%
    03:00 +8°C° 0.4 mm 14 m/S 727 mmHg 73%
    04:00 +8°C° 0.4 mm 14 m/S 728 mmHg 77%
    05:00 +7°C° 1.1 mm 13 m/S 729 mmHg 81%
    06:00 +7°C° 1.1 mm 12 m/S 730 mmHg 84%
    07:00 +7°C° 1.1 mm 11 m/S 731 mmHg 88%
    08:00 +7°C° 1 mm 11 m/S 732 mmHg 88%
    09:00 +7°C° 1 mm 10 m/S 733 mmHg 89%
    10:00 +7°C° 1 mm 9 m/S 734 mmHg 89%
    11:00 +7°C° 0.8 mm 9 m/S 734 mmHg 88%
    12:00 +7°C° 0.8 mm 9 m/S 735 mmHg 88%
    13:00 +7°C° 0.8 mm 8 m/S 736 mmHg 87%
    14:00 +7°C° 0.4 mm 8 m/S 736 mmHg 84%
    15:00 +9°C° 0.4 mm 7 m/S 737 mmHg 82%
    16:00 +9°C° 0.4 mm 7 m/S 737 mmHg 80%
    17:00 +9°C° 0.4 mm 7 m/S 738 mmHg 82%
    18:00 +8°C° 0.4 mm 6 m/S 738 mmHg 84%
    19:00 +8°C° 0.4 mm 6 m/S 739 mmHg 86%
    20:00 +7°C° 0.2 mm 5 m/S 740 mmHg 86%
    21:00 +7°C° 0.2 mm 5 m/S 740 mmHg 87%
    22:00 +7°C° 0.2 mm 5 m/S 741 mmHg 87%
    23:00 +7°C° 0.1 mm 5 m/S 741 mmHg 88%
    Mehr zeigen